Regional Weather Roundup
Issued by NWS Kansas City/Pleasant Hill, MO

Home | Current Version | Previous Version | Text Only | Print | Product List | Glossary On
Versions: 1 2 3 4 5 6 7 8 9 10 11 12 13 14 15 16 17 18 19 20 21 22 23 24 25 26 27 28 29 30 31 32 33 34 35 36 37 38 39 40 41 42 43 44 45 46 47 48 49 50
000
ASUS43 KEAX 011211
RWREAX

WEATHER ROUNDUP FOR EASTERN KANSAS AND NORTHWEST MISSOURI
NATIONAL WEATHER SERVICE KANSAS CITY/PLEASANT HILL MO
600 AM CST SUN FEB 01 2015

KSZ040-057-103>105-MOZ028-029-037-043-011300-
...KANSAS CITY METROPOLITAN AREA...

CITY           SKY/WX    TMP DP  RH WIND       PRES   REMARKS
K.C. INTL      LGT RAIN  33  33 100 NE3       29.71F VSB 1
6HR MIN TEMP:  32; 6HR MAX TEMP:  33; 6HR PCP:  0.23;

K.C. DOWNTOWN  MIX PCPN  34  33  96 CALM      29.71F
6HR MIN TEMP:  33; 6HR MAX TEMP:  34; 6HR PCP:  0.14;

LEES SUMMIT    LGT RAIN  34  32  92 SE3       29.71S FOG
6HR MIN TEMP:  33; 6HR MAX TEMP:  34; 6HR PCP:  0.30;

OLATHE - IXD   LGT RAIN  37  37 100 S6        29.70F FOG     WCI  32
6HR MIN TEMP:  34; 6HR MAX TEMP:  37; 6HR PCP:  0.26;

OLATHE - OJC   LGT RAIN  36  36 100 CALM      29.69F FOG
6HR MIN TEMP:  33; 6HR MAX TEMP:  36; 6HR PCP:  0.23;

LAWRENCE       LGT RAIN  33  33 100 CALM      29.71F FOG

$$

MOZ001>008-011>017-020>025-030>033-038>040-044>046-053-054-011300-
...NORTHERN AND CENTRAL MISSOURI...

CITY           SKY/WX    TMP DP  RH WIND       PRES   REMARKS
ST. JOSEPH     LGT SNOW  32  32 100 N3        29.73F FOG
6HR MIN TEMP:  32; 6HR MAX TEMP:  32; 6HR PCP:  0.18;

MOSBY          DRIZZLE   32  32 100 CALM      29.72F
WARRENSBURG    DRIZZLE   32  32 100 SE5       29.73S WCI  27
WHITEMAN AFB   DRIZZLE   34  32  93 S5        29.72F WCI  30
6HR MIN TEMP:  33; 6HR MAX TEMP:  34; 6HR PCP:  0.24;

CLINTON        MIX PCPN  37  37 100 S6        29.73F WCI  33
SEDALIA        LGT RAIN  34  32  92 SE7       29.73F FOG     WCI  28
6HR MIN TEMP:  33; 6HR MAX TEMP:  35; 6HR PCP:  0.26;

WARSAW         NOT AVBL
MARSHALL       LGT SNOW  36  36 100 SE5       29.76F WCI  32
CHILLICOTHE      N/A     33  32  96 CALM      29.74F
6HR MIN TEMP:  33; 6HR MAX TEMP:  34; 6HR PCP:  0.35;

MOBERLY        LGT SNOW  34  30  86 SE8       29.75  WCI  27
KIRKSVILLE     LGT SNOW  32  32 100 SE7       29.75F FOG     WCI  26
6HR MIN TEMP:  32; 6HR MAX TEMP:  33; 6HR PCP:  0.48;


$$

MOZ041-047>049-056>058-063>065-088>090-097-011300-
...EASTERN AND SOUTHERN MISSOURI...

CITY           SKY/WX    TMP DP  RH WIND       PRES   REMARKS
ST. LOUIS INTL LGT RAIN  35  32  88 SE12      29.83F FOG     WCI  27
6HR MIN TEMP:  35; 6HR MAX TEMP:  41; 6HR PCP:  0.54;

SPIRIT OF STL  LGT RAIN  35  32  88 SE6       29.81F WCI  30
COLUMBIA       LGT RAIN  33  32  96 SE6       29.76F FOG     WCI  28
JEFFERSON CITY LGT RAIN  35  33  92 E8        29.77F FOG     WCI  29
MEXICO         LGT SNOW N/A N/A N/A SE7       29.77F
HANNIBAL       LGT SNOW  34  32  93 SE6       29.78F WCI  29
ROLLA          LGT RAIN  34  33  96 SE8       29.74F FOG     WCI  27
LEBANON        CLOUDY    37  36  93 SE5       29.73F FOG     WCI  34
OSAGE BEACH    CLOUDY    36  34  93 SE5       29.74F WCI  32
SPRINGFIELD    CLOUDY    38  36  92 SE8       29.72F FOG     WCI  32
NEVADA         DRIZZLE   37  37 100 S6        29.74S WCI  33
JOPLIN         LGT RAIN  41  40  96 S10       29.73F FOG     WCI  35
WEST PLAINS    LGT RAIN  38  36  92 S7        29.77F FOG     WCI  33

$$

IAZ060-094-KSZ022-034>040-054-083-096-NEZ052-066-093-011300-
...KANSAS...SOUTHEAST NEBRASKA AND IOWA...

CITY           SKY/WX    TMP DP  RH WIND       PRES   REMARKS
TOPEKA         LGT RAIN  34  33  96 NW6       29.72S FOG     WCI  29
6HR MIN TEMP:  33; 6HR MAX TEMP:  34; 6HR PCP:  0.18;

MANHATTAN      LGT SNOW  33  32  96 NW8       29.78R FOG     WCI  26
EMPORIA        LGT RAIN  40  40 100 NW14G22   29.71R WCI  32
CHANUTE        LGT RAIN  41  41 100 SW8       29.72S FOG
WICHITA        CLOUDY    34  31  88 NW23G35   29.81R WCI  22
OMAHA          LGT SNOW  29  28  96 N21       29.82R FOG     WCI  16
LINCOLN        LGT SNOW  26  23  88 N29       29.85R VSB 1   WCI  10
FALLS CITY     LGT SNOW  32  31  96 N6        29.74S FOG     WCI  26
LAMONI         LGT SNOW  32  31  96 NE6       29.74F FOG     WCI  26
DES MOINES     LGT SNOW  33  31  92 NE8       29.79F FOG     WCI  26

$$



USA.gov is the U.S. government's official web portal to all federal, state and local government web resources and services.